[[{"header":{"parameterUnit":"m.s-1","parameterCategory":1,"la1":30.2991,"la2":30.254,"lo1":-89.0895,"lo2":-89.0444,"dy":0.0017,"dx":0.0017,"nx":28,"ny":28,"refTime":"2025-07-13T09:00:00:Z","depth":0,"parameterNumber":2,"parameterNumberName":"U-component_of_WINDS"},"data":[0,0,0,0,0,0,0,0,0,0,0,0,0,0,0,0,0,0,0,0,0,0,0,0,0,0,0,0,0,0,0,0,0,0,0,0,0,0,0,0,0,0,0,0,0,0,0,0,0,0,0,0,0,0,0,0,0,0,0.7404,0.7406,0,0.7561,0.7563,0.7564,0.7638,0.7638,0.7638,0.7637,0.7796,0.78,0.7804,0,0,0,0,0,0,0,0,0,0,0,0,0,0.7164,0.7168,0.7404,0.7406,0.7408,0.7561,0.7563,0.7565,0.7638,0.7638,0.7637,0.7637,0.7794,0.7799,0.7805,0,0,0,0,0,0,0,0,0,0,0,0,0,0.7289,0.717,0.7404,0.7463,0.747,0.756,0.7563,0.7565,0.7638,0.7638,0.7637,0.7637,0.7793,0.7799,0.7805,0.7848,0,0,0.7825,0.7828,0,0,0,0,0,0,0,0,0.7282,0.7298,0.7452,0.7459,0.7467,0.758,0.7536,0.766,0.7638,0.7574,0.7637,0.7637,0.7724,0.7736,0.7766,0.7856,0.7862,0.7826,0.783,0.7832,0.7834,0,0,0,0,0,0,0,0.7273,0.7292,0.7466,0.7454,0.7463,0.748,0.7498,0.756,0.7648,0.7579,0.7585,0.7603,0.7728,0.7759,0.777,0.7865,0.7825,0.7831,0.7835,0.7838,0.7997,0.7998,0,0,0,0,0,0,0.7256,0.7284,0.7461,0.7471,0.7372,0.7485,0.7504,0.7543,0.7647,0.7663,0.7603,0.7606,0.7748,0.7762,0.7776,0.7833,0.7832,0.7838,0.7842,0.7997,0.7997,0.7998,0,0,0,0,0,0,0.725,0.7271,0.7455,0.7379,0.7404,0.7489,0.7532,0.7547,0.7578,0.7665,0.7681,0.7619,0.7749,0.7767,0.783,0.784,0.7841,0.7847,0.7997,0.7997,0.7998,0.7947,0,0,0,0,0,0,0.7243,0.7268,0.7286,0.7379,0.7408,0.7507,0.7533,0.755,0.7589,0.7595,0.7684,0.7699,0.775,0.782,0.7836,0.7848,0.7852,0.7996,0.7997,0.7997,0.7949,0.7946,0.7944,0,0,0,0,0,0.7234,0.7265,0.7287,0.7308,0.7432,0.7507,0.7524,0.7582,0.759,0.7608,0.7664,0.7696,0.7835,0.7825,0.7845,0.7859,0.7996,0.7997,0.7997,0.795,0.7947,0.7944,0,0,0,0,0,0,0.7171,0.7279,0.7304,0.7366,0.7427,0.7519,0.7545,0.7577,0.7637,0.7639,0.7708,0.7728,0.7785,0.7828,0.7815,0.7906,0.7919,0.7923,0.7876,0.7874,0.7871,0.786,0.7858,0,0,0,0,0,0.7164,0.7217,0.7308,0.7354,0.7384,0.7458,0.7494,0.7533,0.7599,0.7625,0.7685,0.7747,0.7805,0.7841,0.7899,0.7955,0.7975,0.7974,0.7972,0.7969,0.7973,0.8005,0.8006,0.8001,0.8001,0.8001,0,0,0.7151,0.7216,0.7246,0.7343,0.7395,0.7448,0.748,0.7534,0.7574,0.7633,0.7697,0.7743,0.7816,0.7876,0.7905,0.7914,0.7979,0.797,0.7968,0.7973,0.8006,0.8007,0.8007,0.8001,0.8001,0.8001,0,0,0.7154,0.7209,0.7254,0.7305,0.7384,0.7433,0.7443,0.7531,0.7564,0.7629,0.7675,0.7722,0.782,0.7871,0.7909,0.793,0.7962,0.7946,0.7935,0.7966,0.7966,0.7967,0.7975,0.7977,0.7949,0.7949,0.7949,0,0.7128,0.721,0.7272,0.7325,0.7366,0.7422,0.7467,0.7514,0.7606,0.7633,0.7642,0.7766,0.7819,0.7891,0.7896,0.7925,0.7939,0.7937,0.7961,0.7963,0.7964,0.7972,0.7975,0.7947,0.7947,0.7948,0.7948,0,0.7174,0.723,0.7256,0.7345,0.739,0.7438,0.7506,0.7543,0.7578,0.7626,0.7691,0.7757,0.7829,0.7849,0.7884,0.7926,0.7929,0.7948,0.7963,0.7961,0.797,0.7974,0.7944,0.7945,0.7945,0.7946,0,0,0.7143,0.7265,0.7274,0.7315,0.7405,0.7449,0.7499,0.7571,0.7601,0.7662,0.7706,0.7787,0.7806,0.7849,0.789,0.7917,0.7929,0.7933,0.7936,0.793,0.7979,0.7965,0.7967,0.795,0.7951,0.7952,0.7973,0,0.7159,0.7253,0.731,0.738,0.7432,0.7486,0.753,0.7589,0.7635,0.7685,0.7735,0.7792,0.7812,0.7838,0.7867,0.7921,0.794,0.792,0.7991,0.7993,0.7972,0.7972,0.7957,0.7974,0.7977,0.7978,0.7978,0,0.7191,0.7252,0.7328,0.7412,0.7436,0.7474,0.7544,0.7591,0.7659,0.769,0.7738,0.7779,0.7833,0.7842,0.7918,0.7903,0.7935,0.7966,0.7968,0.7978,0.7986,0.7982,0.7981,0.7984,0.7984,0.7984,0.7983,0,0.7161,0.7262,0.7321,0.7354,0.7453,0.7479,0.7521,0.7589,0.7628,0.7688,0.7714,0.7779,0.7815,0.7864,0.7922,0.7923,0.7991,0.8005,0.8018,0.8017,0.8031,0.803,0.8036,0.805,0.805,0.805,0.805,0,0.7174,0.7218,0.7309,0.7345,0.7396,0.746,0.7508,0.7554,0.7614,0.7659,0.7709,0.775,0.7823,0.7873,0.7917,0.7973,0.7988,0.8015,0.8026,0.8011,0.8008,0.8034,0.8034,0.8051,0.8051,0.805,0.805,0,0.715,0.7213,0.728,0.7368,0.7392,0.7425,0.75,0.7537,0.7585,0.7641,0.7658,0.7733,0.7794,0.7856,0.7938,0.7968,0.8023,0.8038,0.8,0.8007,0.8017,0.8015,0.8041,0.8048,0.8056,0.8056,0.8056,0,0.7154,0.719,0.7282,0.7317,0.7358,0.7412,0.7453,0.7516,0.7556,0.7635,0.7662,0.7727,0.7782,0.7877,0.7939,0.8002,0.8019,0.8024,0.8029,0.8012,0.802,0.8018,0.8021,0.8022,0.8021,0.8021,0.8021,0,0.7156,0.7185,0.7241,0.7309,0.7355,0.7411,0.7468,0.7493,0.7568,0.7609,0.7673,0.7716,0.78,0.7864,0.7934,0.7976,0.8011,0.8018,0.8025,0.801,0.7987,0.8,0.7995,0.8018,0.8018,0.8018,0.8019,0.8019,0.7147,0.7181,0.7251,0.7312,0.7362,0.7415,0.7453,0.7506,0.756,0.7634,0.7668,0.7732,0.7798,0.7896,0.7937,0.7988,0.7997,0.8006,0.8009,0.8011,0.8007,0.7978,0.8,0.8001,0.8001,0.8001,0.8001,0,0.7151,0.7199,0.7255,0.7334,0.7381,0.741,0.7475,0.7512,0.7568,0.7627,0.7681,0.7753,0.7815,0.7881,0.7946,0.7974,0.7991,0.7989,0.7988,0.7997,0.7995,0.7983,0.7974,0.7974,0.7974,0.7974,0.7974,0.7974,0.7159,0.7219,0.7256,0.734,0.7387,0.7451,0.7485,0.7533,0.7581,0.766,0.7712,0.7754,0.7816,0.7886,0.7944,0.7961,0.7983,0.7976,0.7999,0.7995,0.7997,0.7999,0.7988,0.7981,0.7981,0.7997,0.7997,0.7997]},{"header":{"parameterUnit":"m.s-1","parameterCategory":1,"la1":30.2991,"la2":30.254,"lo1":-89.0895,"lo2":-89.0444,"dy":0.0017,"dx":0.0017,"nx":28,"ny":28,"refTime":"2025-07-13T09:00:00:Z","depth":0,"parameterNumber":3,"parameterNumberName":"V-component_of_WINDS"},"data":[0,0,0,0,0,0,0,0,0,0,0,0,0,0,0,0,0,0,0,0,0,0,0,0,0,0,0,0,0,0,0,0,0,0,0,0,0,0,0,0,0,0,0,0,0,0,0,0,0,0,0,0,0,0,0,0,0,0,4.327,4.3269,0,4.3195,4.3194,4.3193,4.3117,4.3116,4.3115,4.3115,4.3033,4.3032,4.3031,0,0,0,0,0,0,0,0,0,0,0,0,0,4.3343,4.3342,4.327,4.3269,4.3268,4.3195,4.3194,4.3193,4.3118,4.3116,4.3115,4.3114,4.3034,4.3032,4.3031,0,0,0,0,0,0,0,0,0,0,0,0,0,4.3294,4.3342,4.327,4.3222,4.3217,4.3195,4.3194,4.3193,4.3118,4.3116,4.3115,4.3113,4.3034,4.3033,4.3031,4.305,0,0,4.3025,4.3024,0,0,0,0,0,0,0,0,4.3297,4.3292,4.323,4.3225,4.3219,4.3164,4.319,4.3145,4.3118,4.3155,4.3114,4.3113,4.3078,4.3072,4.3061,4.3046,4.3042,4.3025,4.3024,4.3023,4.3023,0,0,0,0,0,0,0,4.3301,4.3294,4.324,4.3229,4.3222,4.3202,4.3194,4.3181,4.3126,4.3152,4.3146,4.3139,4.3075,4.3063,4.3059,4.3041,4.3025,4.3023,4.3022,4.3022,4.3037,4.3039,0,0,0,0,0,0,4.3312,4.3298,4.3242,4.3238,4.3255,4.3202,4.3193,4.3183,4.3126,4.3116,4.314,4.3135,4.3067,4.3061,4.3056,4.3074,4.3023,4.3021,4.302,4.3036,4.3038,4.3039,0,0,0,0,0,0,4.3314,4.3308,4.3245,4.3266,4.3257,4.3203,4.3193,4.3183,4.3171,4.3117,4.3106,4.3139,4.3066,4.3058,4.3052,4.3071,4.3021,4.3019,4.3034,4.3037,4.3039,4.3112,0,0,0,0,0,0,4.3316,4.3309,4.3316,4.3267,4.3256,4.3245,4.3194,4.3182,4.3169,4.3162,4.3113,4.3103,4.3064,4.3055,4.305,4.3067,4.3017,4.3032,4.3035,4.3038,4.3108,4.3117,4.3124,0,0,0,0,0,4.3319,4.3339,4.3317,4.3311,4.3265,4.3246,4.3239,4.3195,4.3171,4.3177,4.3142,4.3105,4.307,4.3055,4.3049,4.3066,4.3031,4.3034,4.3038,4.3104,4.3115,4.3124,0,0,0,0,0,0,4.339,4.3332,4.3307,4.3312,4.3285,4.3233,4.324,4.3208,4.3186,4.318,4.3124,4.3114,4.3114,4.3089,4.3074,4.3081,4.3045,4.3047,4.3097,4.3107,4.3115,4.3121,4.3016,0,0,0,0,0,4.3407,4.3398,4.3346,4.3356,4.3344,4.3295,4.3284,4.3253,4.3222,4.3209,4.3174,4.3144,4.3126,4.3115,4.3095,4.3104,4.3092,4.3112,4.312,4.3127,4.313,4.3132,4.314,4.3051,4.3051,4.3051,0,0,4.344,4.3407,4.3405,4.3369,4.3344,4.3335,4.3285,4.3277,4.3269,4.3208,4.32,4.3173,4.3136,4.3137,4.3136,4.3116,4.3152,4.3132,4.3138,4.3136,4.3136,4.3145,4.3153,4.3053,4.3053,4.3052,0,0,4.3497,4.3471,4.3476,4.3453,4.3417,4.3384,4.3386,4.3339,4.3319,4.3311,4.3265,4.3254,4.3224,4.32,4.3183,4.3232,4.3196,4.3227,4.3269,4.3272,4.3279,4.3285,4.3302,4.3309,4.3229,4.323,4.323,0,4.3543,4.3529,4.3483,4.3478,4.3464,4.3409,4.3413,4.3392,4.3351,4.3341,4.332,4.3283,4.3253,4.3248,4.326,4.3249,4.3248,4.3232,4.3282,4.3288,4.3293,4.3308,4.3315,4.3233,4.3233,4.3233,4.3232,0,4.3587,4.3577,4.3585,4.3549,4.3535,4.3535,4.3488,4.348,4.3449,4.3419,4.3411,4.3374,4.3347,4.3343,4.3313,4.3333,4.3323,4.3293,4.3255,4.3306,4.332,4.3325,4.3239,4.3238,4.3237,4.3236,0,0,4.3685,4.3624,4.3628,4.3611,4.3567,4.3558,4.3555,4.353,4.3524,4.3497,4.3493,4.3469,4.3442,4.3423,4.3389,4.3392,4.3433,4.3362,4.336,4.3376,4.3453,4.3476,4.3484,4.3409,4.341,4.3411,4.3456,0,4.3734,4.3727,4.3686,4.3691,4.3681,4.3629,4.3627,4.3599,4.357,4.3557,4.3524,4.3509,4.3474,4.3462,4.3463,4.3428,4.3447,4.3424,4.3403,4.3403,4.3414,4.3491,4.3514,4.3559,4.3461,4.3462,4.3463,0,4.379,4.3769,4.3773,4.373,4.3725,4.3723,4.3697,4.3685,4.3652,4.3631,4.3611,4.3574,4.3567,4.3532,4.3521,4.3506,4.3495,4.3477,4.3477,4.3473,4.3436,4.3489,4.3572,4.3579,4.3471,4.347,4.347,0,4.3862,4.3834,4.3833,4.382,4.377,4.377,4.3749,4.3715,4.3702,4.3678,4.3669,4.3645,4.3631,4.3612,4.3569,4.3548,4.3562,4.3524,4.3544,4.3545,4.3549,4.3549,4.3632,4.3542,4.3542,4.3542,4.3542,0,4.3921,4.3925,4.3865,4.3864,4.3867,4.382,4.3824,4.3797,4.3768,4.376,4.3713,4.3707,4.365,4.3637,4.3602,4.3598,4.3592,4.3574,4.3565,4.3578,4.3581,4.357,4.3566,4.3544,4.3543,4.3543,4.3543,0,4.4001,4.3961,4.3956,4.391,4.3898,4.3903,4.3862,4.3859,4.3828,4.3819,4.3814,4.3764,4.3746,4.3701,4.3671,4.3648,4.3653,4.3636,4.3665,4.3659,4.3681,4.3679,4.3759,4.3767,4.3673,4.3674,4.3675,0,4.4041,4.4044,4.3998,4.399,4.3972,4.396,4.3947,4.39,4.3889,4.3852,4.3853,4.3832,4.3812,4.3786,4.3746,4.3723,4.3705,4.3734,4.3701,4.3714,4.3705,4.3705,4.3705,4.3742,4.3743,4.3744,4.3745,0,4.4117,4.4097,4.4081,4.4059,4.4046,4.4026,4.4003,4.3999,4.3946,4.3935,4.3917,4.3902,4.3872,4.3851,4.3822,4.3798,4.3763,4.3756,4.3759,4.3772,4.3789,4.378,4.3684,4.3754,4.3753,4.3752,4.3752,4.3752,4.4178,4.4178,4.4146,4.413,4.4108,4.4088,4.4083,4.4052,4.4037,4.401,4.3983,4.3968,4.3934,4.3891,4.387,4.3857,4.3838,4.3843,4.3844,4.3846,4.3852,4.3792,4.3851,4.3851,4.3851,4.385,4.385,0,4.4251,4.4228,4.4214,4.4184,4.4172,4.4141,4.4114,4.4106,4.4093,4.4066,4.4049,4.4028,4.4008,4.3967,4.3943,4.394,4.3923,4.3935,4.3934,4.393,4.387,4.387,4.3949,4.3949,4.3949,4.3949,4.3949,4.3949,4.4287,4.4286,4.4262,4.4249,4.4226,4.4212,4.4199,4.418,4.4158,4.4138,4.4122,4.4096,4.4063,4.4036,4.4016,4.4004,4.3997,4.4015,4.3998,4.3943,4.3934,4.3925,4.3924,4.4014,4.4014,4.4059,4.4059,4.4059]}]]